This is the latest recevied weather packets stored in our database for station/object K2ATL. If no packets are shown the sender has not sent any weather packets the latest 10 day(s).
| Time | Temp. | Humidity | Pressure | Rain* | Wind** | Luminosity | Snow |
|---|---|---|---|---|---|---|---|
| 1788027631 | 28.89° C | 65% | 1107.2 hPa | 0 mm | - | 374 W/m² | - |
| 1788027326 | 27.78° C | 64% | 1107.2 hPa | 0 mm | - | 617 W/m² | - |
| 1788027025 | 27.22° C | 66% | 1107.4 hPa | 0 mm | - | 977 W/m² | - |
| 1788026725 | 28.33° C | 64% | 1107.6 hPa | 0 mm | - | 276 W/m² | - |
| 1788026422 | 27.78° C | 69% | 1107.4 hPa | 0 mm | - | 978 W/m² | - |
| 1788026116 | 27.22° C | 71% | 1107.6 hPa | 0 mm | - | 965 W/m² | - |
| 1788025815 | 28.33° C | 66% | 1107.6 hPa | 0 mm | - | 926 W/m² | - |
| 1788025514 | 28.33° C | 67% | 1107.7 hPa | 0 mm | - | 911 W/m² | - |
| 1788025209 | 28.89° C | 65% | 1107.9 hPa | 0 mm | - | 961 W/m² | - |
| 1788024904 | 27.78° C | 66% | 1107.7 hPa | 0 mm | - | 987 W/m² | - |
| 1788024600 | 27.78° C | 69% | 1107.4 hPa | 0 mm | - | 889 W/m² | - |
| 1788024295 | 26.67° C | 68% | 1107.7 hPa | 0 mm | - | 922 W/m² | - |
| 1788023990 | 27.78° C | 71% | 1108 hPa | 0 mm | - | 902 W/m² | - |
| 1788023685 | 26.67° C | 72% | 1107.8 hPa | 0 mm | - | 359 W/m² | - |
| 1788023381 | 26.11° C | 75% | 1107.9 hPa | 0 mm | - | 867 W/m² | - |
| 1788023080 | 27.22° C | 73% | 1108.1 hPa | 0 mm | - | 259 W/m² | - |
| 1788022779 | 26.67° C | 71% | 1107.8 hPa | 0 mm | - | 880 W/m² | - |
| 1788022478 | 26.11° C | 74% | 1107.9 hPa | 0 mm | - | 695 W/m² | - |
| 1788022172 | 25.56° C | 72% | 1108.2 hPa | 0 mm | - | 892 W/m² | - |
| 1788021871 | 26.67° C | 71% | 1108 hPa | 0 mm | - | 867 W/m² | - |
| 1788021571 | 26.67° C | 70% | 1108.1 hPa | 0 mm | - | 841 W/m² | - |
| 1788021269 | 26.67° C | 73% | 1108.1 hPa | 0 mm | - | 811 W/m² | - |
| 1788020964 | 26.11° C | 74% | 1107.9 hPa | 0 mm | - | 809 W/m² | - |
| 1788020659 | 25.56° C | 79% | 1108 hPa | 0 mm | - | 791 W/m² | - |
| 1788020355 | 26.11° C | 75% | 1108 hPa | 0 mm | - | 791 W/m² | - |
* Rain latest hour (hover to see other rain measurements)
** Current wind speed in m/s (hover to see current wind gust speed)